Погода в Полтаве

Поиск расширенной информации на нашем сайте:

Полезная информация:

Новости сайта



02.01.2020
Опубликован Долгосрочный прогноз погоды по городам России и ближнего зарубежья на январь 2020 года.
Карты: Прогноз на январь и февраль 2020 года, Сравнение прогнозируемой аномалии приземной температуры воздуха на январь 2020 года по разным моделям.




Погода в Полтаве - сегодня

Время (UTC), дата Ветер
(°,м/с) 
Видим.   Явления Облачность Т
(°С)
Тd
(°С)
f(%) Тe
(°С)
Pmin
(гПа)
dP
(гПа)
Po
(мм)
O2
(г/м3)
Тmin Tmax R s Состояние
почвы
09 04.06.20 170 (Ю) 10 км    9/9 600 м кучево-дожд. 
[Cb calv]
+17.6 +9.2 58 +18  1007.9  0.8  742  279      140  698   
12 04.06.20 180 (Ю) 10 км    8/6 600 м верхняя 
[Cu med, cong|Ci ing]
+20.2 +12.6 62 +25  1007.1  -0.6  741  276           
15 04.06.20 180 (Ю) 10 км  в посл. час гроза{ливн. осадки}  9/8 300 м кучево-дожд., верхняя 
[Cb calv|Ci ing]
+16 +10.3 69 +19  1008.7  1.3  742  281           
18 04.06.20 150 (ЮВ) 10 км  в посл. час ливневой дождь{гроза}  9/8 600 м кучево-дожд., средняя, верхняя 
[Cb cap|Ac trans|Ci fib]
+12.2 +11 92 +16  1009.7  0.8  743  284    +21.3     
21 04.06.20 160 (Ю) 10 км    9/4 600 м средняя, верхняя 
[Sc|Ac trans|Ci fib]
+11.8 +10.4 91 +15  1010.3  0.5  743  285           
00 05.06.20 160 (Ю) 10 км    8/0 средняя 
[Ac trans]
+11.4 +9.8 90 +13  1010.3  743  286           
03 05.06.20 130 (ЮВ) 4000 м  в посл. час ливневой дождь  10/8 600 м кучево-дожд., средняя 
[Cb calv|Ac und]
+11.8 +10.6 92 +14  1010.3  743  285           
06 05.06.20 110 (В) 10 км  {ливн. осадки}  10/9 300 м средняя 
[St|Ac und]
+14 +12 88 +18  1010.1  743  283  +11.2    0.0     
09 05.06.20 170 (Ю) 10 км  слаб. ливневой дождь  10/10 300 м кучево-дожд. 
[Cb cap]
+16 +13.9 87 +23  1011.1  1.1  744  280           
12 05.06.20 170 (Ю) 10 км  в посл. час ливневой дождь  10/9 300 м кучево-дожд., средняя 
[Cb cap|Ac As]
+18.6 +15.7 83 +30  1011.1  0.2  744  277         
15 05.06.20 180 (Ю) 2000 м  гроза, ливневой дождь  10/10 300 м кучево-дожд. 
[Cb cap]
+19.3 +15.8 80 +31  1011  -0.1  744  277           
18 05.06.20 тихо ()   4000 м  дымка{гроза, ливн. осадки}  9/8 600 м средняя 
[Sc|Ac As]
+15.6 +14.4 93 +23  1011.1  -0.1  744  281    +21.4  14     
21 05.06.20 190 (Ю) 10 км    9/0 средняя 
[Ac trans]
+16.9 +13.5 80 +24  1012  0.9  745  280           
00 06.06.20 180 (Ю) 10 км    10/9 1000 м средняя 
[Sc|Ac trans]
+16 +13.5 85 +23  1012.8  0.8  746  281           
03 06.06.20 170 (Ю) 10 км    1/0 верхняя 
[Ci fib]
+15.2 +12.1 82 +20  1013.1  0.2  746  282           
06 06.06.20 180 (Ю) 10 км    8/0 верхняя 
[Ci fib]
+19.4 +12.3 63 +24  1013.5  0.7  746  278  +14.9         
09 06.06.20 180 (Ю) 10 км    9/0 верхняя 
[Ci fib]
+24.3 +15 56 +33  1013.5  0.3  746  273           
12 06.06.20 190 (Ю) 10 км    8/0 верхняя 
[Ci fib]
+26.6 +14.2 46 +34  1013.7  0.3  747  271           
15 06.06.20 190 (Ю) 10 км    3/0 верхняя 
[Ci fib]
+27.2 +11.1 37 +30  1013.4  -0.3  746  272        698   
18 06.06.20 150 (ЮВ) 10 км    4/0 верхняя 
[Ci fib]
+23 +11.7 49 +27  1013.9  0.3  747  275           
21 06.06.20 150 (ЮВ) 10 км    ясно 
+20.6 +13.1 62 +26  1015.2  1.1  747  277           
00 07.06.20 160 (Ю) 10 км    3/0 верхняя 
[Ci fib]
+18.8 +12.4 66 +25  1015.9  0.6  748  280           
03 07.06.20 140 (ЮВ) 10 км    ясно 
+15.4 +12.9 85 +22  1016.4  0.3  748  283           
06 07.06.20 140 (ЮВ) 10 км    ясно 
+21.7 +11 51 +24  1016.6  0.5  749  277  +15  -2.7       
09 07.06.20 090 (В) 10 км    1/0 верхняя 
[Ci fib]
+25.2 +11 41 +28  1016.4  0.1  749  274           
Время (UTC), дата Ветер
(°,м/с) 
Видим.   Явления Облачность Т
(°С)
Тd
(°С)
f(%) Тe
(°С)
Pmin
(гПа)
dP
(гПа)
Po
(мм)
O2
(г/м3)
Тmin Tmax R s Состояние
почвы

Для получения пояснительной информации подведите курсор к названию столбца.

ПОГОДА в Полтаве - архив

Всё, что Вы хотите узнать о погоде в Полтаве - удобно и подробно!

Выберите нужную дату (начиная с 1 января 2019* года) и нажмите кнопку "Найти".
Будут отображены архивные сводки погоды по пункту Полтава, начиная с указанной даты.


Отображать данные в формате CSV (для использования в таблицах Excel)


Внимание! Наш архив погоды предназначен исключительно для личного некоммерческого использования в познавательных целях. Если Вам необходимы официальные справки о состоянии погоды (для производственных, юридических, коммерческих и т.п. целей), обращайтесь в органы Росгидромета.

*Примечание: данная дата относится к архиву по метеостанциям СССР (Россия, СНГ, Балтия).
Архив по метеостанциям Зарубежной Европы и Азии (кроме Китая) хранится 10 дней, по другим регионам земного шара (Китай, Африка, Америка, Австралия, Океания) - 1 день.

Полтава - район местоположения метеостанции


Название, широта, долгота, высота метеостанции:
Полтава 49.6°ш. 34.6°д. 160 м над ур. моря [Украина]

Дополнительная информация

В oтличие oт бoльшинства пoгoдных сайтoв мы публикуем пoдрoбную метеoинфoрмацию в детальнoм прoфессиoнальнoм фoрмате.

Характеристики температуры и влажнoсти вoздуха измеряются на высoте 2 м в тени вдали oт зданий и деревьев.
Скoрoсть ветра измеряется на высoте 10 м (на урoвне рoста челoвека скoрoсть ветра ниже в 1.5-2 раза). Если метеoстанция нахoдится в гoрoде или в лесу, тo скoрoсть ветра занижена на 2-4 м/с пo сравнению с oткрытым местoм. Скoрoсть ветра над акватoриями крупных рек и oзёр, а также на вершинах хoлмoв на 2-5 м/с выше, чем в oбычных услoвиях.
Атмoсфернoе давление в разных тoчках местнoсти мoжет значительнo oтличаться oт давления на метеoстанции, в зависимoсти oт услoвий рельефа (при пoдъёме на 10 м давление пoнижается примернo на 1 мм рт.ст.).